Tracking 30994 objects as of 8-Jul-2025
HD Live streaming from Space Station
objects crossing your sky now

STARLINK-32903

Track STARLINK-32903 now!
10-day predictions
STARLINK-32903 is classified as:


NORAD ID: 63090
Int'l Code: 2025-037P
Perigee: 576.3 km
Apogee: 582.0 km
Inclination: 70.0 °
Period: 96.1 minutes
Semi major axis: 6950 km
RCS: Unknown
Launch date: February 23, 2025
Source: United States (US)
Launch site: AIR FORCE WESTERN TEST RANGE (AFWTR)
Your satellite tracking list
Your tracking list is empty




NASA's NSSDC Master Catalog

Two Line Element Set (TLE):
1 63090U 25037P   25188.59289238  .00001350  00000-0  12091-3 0  9990
2 63090  70.0007 252.2412 0004089 266.3077  93.7614 14.98332919 21758
Source of the keplerian elements: AFSPC